TimeEST,TemperatureF,Dew PointF,Humidity,Sea Level PressureIn,VisibilityMPH,Wind Direction,Wind SpeedMPH,Gust SpeedMPH,PrecipitationIn,Events,Conditions,WindDirDegrees,DateUTC
12:53 AM,27.0,18.0,69,30.40,10.0,Calm,Calm,-,N/A,,Clear,0,2013-02-07 05:53:00
1:53 AM,26.1,18.0,71,30.42,8.0,Calm,Calm,-,N/A,,Clear,0,2013-02-07 06:53:00
2:53 AM,26.1,17.1,69,30.41,10.0,Calm,Calm,-,N/A,,Clear,0,2013-02-07 07:53:00
3:53 AM,25.0,19.0,78,30.39,7.0,Calm,Calm,-,N/A,,Clear,0,2013-02-07 08:53:00
4:53 AM,23.0,19.0,85,30.42,7.0,Calm,Calm,-,N/A,,Clear,0,2013-02-07 09:53:00
5:53 AM,25.0,19.0,78,30.43,7.0,Calm,Calm,-,N/A,,Clear,0,2013-02-07 10:53:00
6:53 AM,26.1,21.0,81,30.45,8.0,ENE,4.6,-,N/A,,Clear,70,2013-02-07 11:53:00
7:53 AM,26.1,19.9,78,30.46,6.0,ENE,4.6,-,N/A,,Haze,70,2013-02-07 12:53:00
8:53 AM,28.9,21.0,72,30.46,7.0,Calm,Calm,-,N/A,,Clear,0,2013-02-07 13:53:00
9:53 AM,32.0,19.9,61,30.45,10.0,Calm,Calm,-,N/A,,Mostly Cloudy,0,2013-02-07 14:53:00
10:53 AM,33.1,19.9,59,30.44,10.0,Calm,Calm,-,N/A,,Mostly Cloudy,0,2013-02-07 15:53:00
11:53 AM,34.0,18.0,52,30.42,10.0,SSE,11.5,-,N/A,,Overcast,160,2013-02-07 16:53:00
12:53 PM,35.1,19.0,52,30.38,10.0,SSE,10.4,-,N/A,,Overcast,150,2013-02-07 17:53:00
1:53 PM,36.0,19.9,52,30.36,10.0,SSE,12.7,-,N/A,,Overcast,160,2013-02-07 18:53:00
2:53 PM,36.0,21.0,55,30.33,10.0,SE,9.2,-,N/A,,Overcast,130,2013-02-07 19:53:00
3:53 PM,36.0,21.0,55,30.32,10.0,ESE,8.1,-,N/A,,Overcast,110,2013-02-07 20:53:00
4:53 PM,36.0,21.9,57,30.32,10.0,SSE,5.8,-,N/A,,Overcast,150,2013-02-07 21:53:00
5:53 PM,34.0,21.9,61,30.33,10.0,ESE,5.8,-,N/A,,Overcast,110,2013-02-07 22:53:00
6:53 PM,34.0,21.9,61,30.33,10.0,ESE,4.6,-,N/A,,Overcast,110,2013-02-07 23:53:00
7:53 PM,34.0,23.0,64,30.32,10.0,East,4.6,-,N/A,,Overcast,100,2013-02-08 00:53:00
8:53 PM,34.0,21.9,61,30.30,10.0,ESE,6.9,-,N/A,,Overcast,110,2013-02-08 01:53:00
9:22 PM,33.8,23.0,65,30.24,10.0,Calm,Calm,-,N/A,,Overcast,0,2013-02-08 02:22:00
9:53 PM,34.0,23.0,64,30.28,10.0,Calm,Calm,-,N/A,,Overcast,0,2013-02-08 02:53:00
10:53 PM,34.0,25.0,70,30.26,10.0,East,4.6,-,N/A,,Overcast,90,2013-02-08 03:53:00
11:53 PM,34.0,26.1,73,30.24,10.0,East,5.8,-,N/A,,Overcast,100,2013-02-08 04:53:00